Flag for Belarus Weather past 2 weeks in Gomel, Belarus

Now
63 °F

Clear.


Feels Like: 63 °F
Forecast: 56 / 71 °F
Wind: 3 mph from Northwest

Location: Gomel'

Current Time: Aug 30, 2014 at 9:49:18 PM

Latest Report: Aug 30, 2014 at 9:00 PM


Visibility: 5 mi

Pressure: 30.04 "Hg

Humidity: 68%

Dew point: 52 °F

Location of GomelLocation

Historic Weather in Gomel — Graph

°F

Gomel temperature yesterday

Maximum temperature yesterday: 66 °F (at 1:00 PM)
Minimum temperature yesterday: 52 °F (at 2:00 AM)
Average temperature yesterday: 60 °F

Past Weeks' High & Low Weather Summary

 TemperatureHumidityPressure
High81 °F (Aug 19, 3:00 PM)100% (Aug 17, 1:00 AM)30.12 "Hg (Aug 17, 1:00 AM)
Low46 °F (Aug 26, 6:00 AM)34% (Aug 20, 3:00 PM)29.65 "Hg (Aug 25, 2:00 AM)
Average63 °F70%29.90 "Hg
* Reported Aug 15 8:00 PM — Aug 30 8:00 PM, Gomel, Weather by CustomWeather, © 2014

Note: Actual official high and low records may vary slightly from our data, if they occured in-between our weather recording intervals... More about our weather records

Advertising

Gomel weather history for previous 24 hours

 ConditionsComfort  
Time TempWeatherWind HumidityBarometerVisibility
8:00 PM
Aug 30
66 °FSunny.N/A56%30.04 "Hg10 mi
7:30 PM68 °FSunny.3 mph49%30.04 "Hg10 mi
7:00 PM68 °FSunny.N/A49%30.04 "Hg10 mi
6:30 PM68 °FSunny.6 mph49%30.04 "Hg10 mi
6:00 PM68 °FSunny.N/A49%30.04 "Hg10 mi
5:30 PM72 °FSunny.6 mph38%30.04 "Hg10 mi
5:00 PM72 °FPartly sunny.8 mph38%30.04 "HgN/A
4:30 PM70 °FPartly sunny.10 mph43%30.04 "HgN/A
4:00 PM70 °FBroken clouds.10 mph43%30.04 "HgN/A
3:30 PM70 °FBroken clouds.10 mph43%30.04 "HgN/A
3:00 PM70 °FBroken clouds.10 mph43%30.07 "HgN/A
2:30 PM70 °FBroken clouds.10 mph46%30.07 "HgN/A
2:00 PM70 °FBroken clouds.10 mph46%30.07 "HgN/A
1:30 PM68 °FBroken clouds.13 mph56%30.07 "HgN/A
1:00 PM68 °FPartly sunny.15 mph56%30.07 "HgN/A
12:30 PM66 °FPartly sunny.10 mph56%30.07 "HgN/A
12:00 PM66 °FBroken clouds.13 mph56%30.07 "HgN/A
11:30 AM64 °FBroken clouds.13 mph60%30.09 "HgN/A
11:00 AM64 °FSunny.13 mph60%30.07 "Hg10 mi
10:30 AM61 °FSunny.13 mph68%30.07 "Hg10 mi
10:00 AM61 °FSunny.13 mph68%30.07 "Hg10 mi
9:30 AM59 °FSunny.13 mph72%30.07 "Hg10 mi
9:00 AM59 °FSunny.13 mph72%30.07 "Hg10 mi
8:30 AM55 °FSunny.13 mph77%30.07 "Hg10 mi
8:00 AM55 °FSunny.13 mph77%30.07 "Hg10 mi
7:30 AM50 °FSunny.10 mph88%30.07 "Hg10 mi
7:00 AM50 °FClear.10 mph88%30.04 "Hg10 mi
6:30 AM50 °FClear.10 mph88%30.04 "Hg10 mi
6:00 AM50 °FClear.8 mph88%30.04 "Hg10 mi
5:00 AM50 °FClear.10 mph88%30.04 "Hg10 mi
4:00 AM50 °FClear.10 mph88%30.04 "Hg10 mi
3:00 AM52 °FClear.10 mph82%30.01 "Hg10 mi
2:00 AM52 °FClear.10 mph88%30.01 "Hg10 mi
1:00 AM54 °FClear.8 mph82%30.01 "Hg10 mi
12:00 AM55 °FClear.10 mph77%30.01 "Hg10 mi
10:00 PM
Aug 29
57 °FClear.6 mph82%30.01 "Hg10 mi
9:00 PM57 °FClear.6 mph77%30.01 "Hg10 mi
Weather by CustomWeather, © 2014

See weather overviewHow to use our weather pages